TimeEST,TemperatureF,Dew PointF,Humidity,Sea Level PressureIn,VisibilityMPH,Wind Direction,Wind SpeedMPH,Gust SpeedMPH,PrecipitationIn,Events,Conditions,WindDirDegrees,DateUTC
12:52 AM,30.9,26.1,82,30.19,7.0,South,5.8,-,N/A,,Clear,190,2013-01-09 05:52:00
1:52 AM,30.9,26.1,82,30.15,8.0,South,5.8,-,N/A,,Clear,180,2013-01-09 06:52:00
2:52 AM,30.9,26.1,82,30.15,8.0,South,5.8,-,N/A,,Partly Cloudy,190,2013-01-09 07:52:00
3:52 AM,34.0,28.0,79,30.14,10.0,SSW,8.1,-,N/A,,Overcast,200,2013-01-09 08:52:00
4:52 AM,37.9,30.0,73,30.11,10.0,SSW,10.4,-,N/A,,Overcast,200,2013-01-09 09:52:00
5:52 AM,41.0,30.9,67,30.12,10.0,SW,16.1,23.0,N/A,,Overcast,230,2013-01-09 10:52:00
6:52 AM,41.0,30.9,67,30.09,10.0,SSW,15.0,21.9,N/A,,Overcast,210,2013-01-09 11:52:00
7:52 AM,41.0,30.9,67,30.12,10.0,SW,15.0,-,N/A,,Partly Cloudy,230,2013-01-09 12:52:00
8:52 AM,39.9,32.0,73,30.15,10.0,WSW,20.7,27.6,N/A,,Clear,240,2013-01-09 13:52:00
9:52 AM,41.0,32.0,70,30.18,10.0,WSW,19.6,29.9,N/A,,Clear,240,2013-01-09 14:52:00
10:52 AM,41.0,32.0,70,30.21,10.0,WSW,18.4,-,N/A,,Clear,250,2013-01-09 15:52:00
11:52 AM,42.8,32.0,66,30.19,10.0,WSW,23.0,29.9,N/A,,Clear,250,2013-01-09 16:52:00
12:52 PM,43.0,30.9,62,30.20,10.0,WSW,21.9,28.8,N/A,,Clear,250,2013-01-09 17:52:00
1:52 PM,44.1,30.0,58,30.20,10.0,WSW,21.9,29.9,N/A,,Clear,250,2013-01-09 18:52:00
2:52 PM,45.0,30.9,58,30.24,10.0,West,17.3,26.5,N/A,,Clear,260,2013-01-09 19:52:00
3:52 PM,45.0,28.9,53,30.25,10.0,West,19.6,-,N/A,,Clear,260,2013-01-09 20:52:00
4:52 PM,43.0,28.0,56,30.29,10.0,West,20.7,27.6,N/A,,Clear,260,2013-01-09 21:52:00
5:52 PM,41.0,27.0,57,30.32,10.0,WSW,16.1,-,N/A,,Clear,250,2013-01-09 22:52:00
6:52 PM,37.0,28.0,70,30.35,10.0,WSW,10.4,-,N/A,,Clear,250,2013-01-09 23:52:00
7:52 PM,34.0,27.0,75,30.38,10.0,WSW,10.4,-,N/A,,Clear,250,2013-01-10 00:52:00
8:52 PM,32.0,27.0,82,30.41,10.0,WSW,8.1,-,N/A,,Clear,250,2013-01-10 01:52:00
9:52 PM,33.1,26.1,75,30.43,10.0,SW,4.6,-,N/A,,Clear,230,2013-01-10 02:52:00
10:52 PM,27.0,23.0,85,30.46,9.0,Calm,Calm,-,N/A,,Clear,0,2013-01-10 03:52:00
11:52 PM,27.0,24.1,89,30.50,10.0,Calm,Calm,-,N/A,,Clear,0,2013-01-10 04:52:00